Weather in Berezovskyi

Russia / Sverdlovsk Oblast     56°54′36″N   60°47′53″E
temp.,
°C
wind,
m/s
gust,
m/s
humid.,
%
clouds,
%
prec.,
mm/h
press.,
hPa
HPBL,
m
20 january, wed
wed2023:00−16se4995100 0.5 1019369
02:00−16se3996100 1.2 1018367
05:00−16ese4995100 2.1 1016388
08:00−16se3996100 0.8 1014439
11:00−16se2495100 1.5 1013386
14:00−15se1292100 0.6 1012345
17:00−15wsw1197100 1.2 101120
20:00−15w3996100 0.5 1011545
21 january, thu
thu2123:00−18w51190100 0.6 1012521
02:00−20w51193100 0.1 1013489
05:00−21w51191100 0.1 1014465
08:00−22w4119299 0.0 1014401
11:00−21w5119194 0.1 1014450
14:00−19w41091100 0.0 1014430
17:00−21w31094100 0.0 1014346
20:00−21w4119362 0.0 1014382
22 january, fri
fri2223:00−22w399574 0.0 1014266
02:00−21w2998100 0.1 1014348
05:00−20wsw2798100 0.2 1014289
08:00−21wsw2798100 0.1 1015202
11:00−19wnw259598 0.2 1016284
14:00−18n1292100 0.1 1017369
17:00−22nne2498100 0.3 1019134
20:00−24nne3598100 0.1 1022254
23 january, sat
sat2323:00−26nne269899 0.3 1025216
02:00−31nne239996 0.0 102862
05:00−33n229849 0.0 103020
08:00−34n119856 0.0 103219
11:00−30ese129475 0.0 1033110
14:00−27se2493100 0.0 1032249
17:00−26se3794100 0.0 1030271
20:00−27se41098100 0.4 1029331
24 january, sun
sun2423:00−26se3898100 1.4 1027375
02:00−25se3798100 0.6 1027320
05:00−24ese3698100 1.0 1026308
08:00−23ese3698100 0.3 1027300
11:00−22ese3797100 0.6 1027310
14:00−20se4898100 0.6 1025349
17:00−20se3898100 2.1 1024337
20:00−19se3797100 1.1 1024280